Weather History for Hickory, NC

Change the Weather History Date:

Tuesday, January 29, 2013

  Actual Average Record
Temperature  
Mean Temperature 53 °F -  
Max Temperature 71 °F 50 °F 78 °F (1975)
Min Temperature 35 °F 28 °F 10 °F (1977)
Degree Days  
Heating Degree Days 12    
Growing Degree Days 3 (Base 50)    
Moisture  
Dew Point 42 °F    
Average Humidity 86    
Maximum Humidity 100    
Minimum Humidity 52    
Precipitation  
Precipitation 0.02 in - - ()
Sea Level Pressure  
Sea Level Pressure 30.15 in    
Wind  
Wind Speed 1 mph (SSW)    
Max Wind Speed 14 mph    
Max Gust Speed 24 mph    
Visibility 4 miles    
Events Fog    
Averages and records for this station are not official NWS values.
T = Trace of Precipitation, MM = Missing Value Source: NWS Daily Summary

Daily Weather History Graph

Daily Weather History Graph

Search for Another Location

Airport:

Trip Planner

Search our weather history database for the weather conditions in past years. The results will help you decide how hot, cold, wet, or windy it might be!

Date:

Astronomy

Jan. 29, 2013 Rise Set
Actual Time 7:27 AM EST 5:50 PM EST
Civil Twilight 7:00 AM EST 6:17 PM EST
Nautical Twilight 6:30 AM EST 6:47 PM EST
Astronomical Twilight 5:59 AM EST 7:18 PM EST
Moon 8:37 PM EST (1/29) 8:30 AM EST (1/29)
Length of Visible Light 11h 16m
Length of Day
10h 22m
Waning Gibbous, 94% of the Moon is Illuminated
Jan 29
Waning Gibbous
Feb 3
Last Quarter
Feb 10
New
Feb 17
First Quarter
Feb 25
Full

Hourly Weather History & Observations

Time (EST) Temp. Dew Point Humidity Pressure Visibility Wind Dir Wind Speed Gust Speed Precip Events Conditions
12:53 AM 43.0 °F 41.0 °F 93% 30.20 in 4.0 mi Calm Calm - N/A   Clear
1:53 AM 43.0 °F 41.0 °F 93% 30.19 in 3.0 mi Calm Calm - N/A   Clear
2:19 AM 39.2 °F 39.2 °F 100% 30.21 in 2.5 mi Calm Calm - N/A   Clear
2:45 AM 41.0 °F 39.2 °F 93% 30.20 in 1.8 mi Calm Calm - N/A   Clear
2:53 AM 42.1 °F 39.9 °F 92% 30.18 in 2.5 mi Calm Calm - N/A   Clear
3:10 AM 39.2 °F 37.4 °F 93% 30.21 in 1.2 mi Calm Calm - N/A   Clear
3:20 AM 39.2 °F 37.4 °F 93% 30.20 in 0.5 mi Calm Calm - N/A Fog Fog
3:25 AM 39.2 °F 37.4 °F 93% 30.20 in 1.0 mi Calm Calm - N/A   Clear
3:33 AM 39.2 °F 37.4 °F 93% 30.20 in 0.8 mi Calm Calm - N/A   Mist
3:45 AM 39.2 °F 37.4 °F 93% 30.20 in 1.2 mi Calm Calm - N/A   Clear
3:53 AM 37.9 °F 36.0 °F 93% 30.17 in 0.8 mi Calm Calm - N/A   Mist
4:15 AM 39.2 °F 37.4 °F 93% 30.19 in 1.0 mi Calm Calm - N/A   Scattered Clouds
4:31 AM 35.6 °F 35.6 °F 100% 30.19 in 0.8 mi Calm Calm - N/A   Mostly Cloudy
4:45 AM 35.6 °F 33.8 °F 93% 30.19 in 1.2 mi Calm Calm - N/A   Mostly Cloudy
4:53 AM 36.0 °F 35.1 °F 97% 30.17 in 0.2 mi Calm Calm - N/A Fog Fog
5:09 AM 35.6 °F 35.6 °F 100% 30.18 in 0.2 mi Calm Calm - N/A Fog Fog
5:14 AM 35.6 °F 35.6 °F 100% 30.18 in 0.5 mi Calm Calm - N/A Fog Fog
5:39 AM 37.4 °F 35.6 °F 93% 30.18 in 2.0 mi Calm Calm - N/A   Overcast
5:51 AM 37.4 °F 35.6 °F 93% 30.18 in 2.5 mi Calm Calm - N/A   Overcast
5:53 AM 37.0 °F 36.0 °F 96% 30.17 in 2.5 mi Calm Calm - N/A   Overcast
6:25 AM 37.4 °F 35.6 °F 93% 30.18 in 1.8 mi Calm Calm - N/A   Scattered Clouds
6:35 AM 39.2 °F 37.4 °F 93% 30.19 in 1.8 mi Calm Calm - N/A   Partly Cloudy
6:51 AM 37.4 °F 35.6 °F 93% 30.19 in 2.5 mi Calm Calm - N/A   Clear
6:53 AM 39.0 °F 37.0 °F 93% 30.17 in 2.0 mi Calm Calm - N/A   Clear
7:03 AM 39.2 °F 37.4 °F 93% 30.18 in 1.0 mi Calm Calm - N/A   Clear
7:26 AM 37.4 °F 35.6 °F 93% 30.19 in 2.0 mi Calm Calm - N/A   Scattered Clouds
7:33 AM 37.4 °F 35.6 °F 93% 30.19 in 1.2 mi Calm Calm - N/A   Scattered Clouds
7:53 AM 39.9 °F 37.9 °F 93% 30.17 in 1.2 mi Calm Calm - N/A   Partly Cloudy
8:36 AM 41.0 °F 41.0 °F 100% 30.19 in 2.0 mi Calm Calm - N/A   Clear
8:53 AM 44.1 °F 43.0 °F 96% 30.18 in 3.0 mi Calm Calm - N/A   Clear
9:53 AM 48.0 °F 42.1 °F 80% 30.18 in 7.0 mi Calm Calm - N/A   Clear
10:53 AM 55.0 °F 44.1 °F 67% 30.17 in 9.0 mi Calm Calm - N/A   Clear
11:53 AM 60.1 °F 46.0 °F 60% 30.13 in 10.0 mi SSW 3.5 mph - N/A   Clear
12:53 PM 66.0 °F 48.0 °F 52% 30.10 in 10.0 mi Calm Calm - N/A   Clear
1:53 PM 70.0 °F 54.0 °F 57% 30.06 in 10.0 mi SSW 12.7 mph 18.4 mph N/A   Partly Cloudy
2:53 PM 71.1 °F 54.0 °F 55% 30.05 in 10.0 mi SSW 13.8 mph 24.2 mph N/A   Scattered Clouds
3:53 PM 69.1 °F 54.0 °F 58% 30.05 in 10.0 mi SW 10.4 mph 19.6 mph N/A   Clear
4:53 PM 66.9 °F 55.0 °F 66% 30.04 in 10.0 mi South 10.4 mph 19.6 mph N/A   Scattered Clouds
5:53 PM 64.9 °F 55.0 °F 70% 30.03 in 10.0 mi South 9.2 mph - N/A   Clear
6:53 PM 64.9 °F 55.0 °F 70% 30.04 in 10.0 mi South 8.1 mph - N/A   Overcast
7:53 PM 64.9 °F 55.0 °F 70% 30.03 in 10.0 mi South 3.5 mph - N/A   Overcast
8:53 PM 64.0 °F 55.0 °F 73% 30.04 in 10.0 mi South 5.8 mph - N/A   Overcast
9:53 PM 61.0 °F 57.0 °F 87% 30.02 in 10.0 mi Calm Calm - 0.02 in   Overcast
10:53 PM 61.0 °F 55.9 °F 83% 30.00 in 10.0 mi Variable 4.6 mph - 0.00 in   Overcast
11:53 PM 61.0 °F 55.9 °F 83% 29.99 in 10.0 mi Calm Calm - 0.00 in   Overcast